N5GAH-13 Weather Reports


Display with metric or nautical units.
time (UTC)temp
F
wind
direction
speed
MPH
gust
MPH
rain 1hr
in
rain 24hr
in
rain mn
in
humidity
%
barometer
mb
20260904220034 99 214 3.0 7.0 0.00 0.00 0.00 25 1017.3
20260904213034 101 154 3.0 8.0 0.00 0.00 0.00 24 1017.7
20260904210034 104 129 4.0 9.0 0.00 0.00 0.00 24 1018.3
20260904203034 105 199 4.0 9.0 0.00 0.00 0.00 24 1018.7
20260904200034 104 159 4.0 9.0 0.00 0.00 0.00 26 1018.9
20260904193034 104 169 4.0 12.0 0.00 0.00 0.00 26 1019.3
20260904190034 103 200 5.0 12.0 0.00 0.00 0.00 27 1019.7
20260904183034 101 242 3.0 9.0 0.00 0.00 0.00 30 1020.1
20260904180033 100 223 5.0 12.0 0.00 0.00 0.00 30 1020.5
20260904173034 98 247 4.0 11.0 0.00 0.00 0.00 33 1020.8
20260904170034 96 228 4.0 8.0 0.00 0.00 0.00 37 1021.0
20260904160033 91 281 3.0 7.0 0.00 0.00 0.00 43 1020.8
20260904153033 88 227 5.0 10.0 0.00 0.00 0.00 47 1021.0
20260904150033 85 230 4.0 8.0 0.00 0.00 0.00 52 1021.0
20260904143034 82 261 4.0 9.0 0.00 0.00 0.00 56 1021.0
20260904130034 74 264 1.0 3.0 0.00 0.00 0.00 65 1019.9
20260904123034 74 216 1.0 3.0 0.00 0.00 0.00 63 1019.4
20260904120034 75 228 2.0 4.0 0.00 0.00 0.00 61 1019.2
20260904113034 76 223 1.0 3.0 0.00 0.00 0.00 61 1019.2
20260904110034 75 240 5.0 8.0 0.00 0.00 0.00 62 1018.9
20260904103034 74 279 0.0 2.0 0.00 0.00 0.00 64 1019.4
20260904100034 75 274 0.0 2.0 0.00 0.00 0.00 64 1019.2
20260904093034 76 274 0.0 2.0 0.00 0.00 0.00 63 1019.0
20260904090033 76 178 1.0 5.0 0.00 0.00 0.00 64 1018.9
20260904083033 76 147 4.0 9.0 0.00 0.00 0.00 63 1018.7
20260904080034 77 140 1.0 4.0 0.00 0.00 0.00 59 1018.7
20260904073034 78 119 2.0 4.0 0.00 0.00 0.00 55 1018.9
20260904070033 79 128 2.0 4.0 0.00 0.00 0.00 52 1019.0
20260904060033 80 216 1.0 3.0 0.00 0.00 0.00 49 1018.8
20260904053034 82 298 1.0 3.0 0.00 0.00 0.00 47 1018.7
20260904050034 82 272 3.0 6.0 0.00 0.00 0.00 46 1018.9
20260904043034 83 331 3.0 6.0 0.00 0.00 0.00 44 1019.0
20260904040033 84 250 4.0 8.0 0.00 0.00 0.00 44 1019.0
20260904033034 85 298 5.0 11.0 0.00 0.00 0.00 44 1019.3
20260904023034 87 204 4.0 7.0 0.00 0.00 0.00 41 1018.2
20260904020033 88 200 4.0 8.0 0.00 0.00 0.00 40 1018.0
20260904013034 89 201 3.0 6.0 0.00 0.00 0.00 39 1017.8
20260904010034 90 0 0.0 0.0 0.00 0.00 0.00 36 1017.7
20260904003034 91 276 1.0 3.0 0.00 0.00 0.00 36 1018.0
20260904000033 92 283 3.0 8.0 0.00 0.00 0.00 36 1018.3
20260903233034 94 281 4.0 12.0 0.00 0.00 0.00 33 1018.2
20260903230033 94 158 4.0 10.0 0.00 0.00 0.00 33 1017.5